Location: Brookview Estates
(36.0476°N, 86.6931°W)
Time: 08:56:52
(UTC+00:00)

STARLINK-1011 - Pass Details

Date: 30 March 2020
Orbit: 549 x 550 km, 53.0° (Epoch: 02 June)

Event Time Altitude Azimuth Distance (km) Brightness Sun altitude
Exits shadow 10:25:17 18° 213° (SSW) 1,396 5.2 -14.7°
Maximum altitude 10:28:17 66° 134° (SE) 603 3.9 -14.1°
Drops below altitude 10° 10:32:24 10° 52° (NE) 1,826 7.4 -13.3°
Sets 10:34:39 0° 49° (NE) 2,723 8.4 -12.9°
